Stations météo

réclame
Mon MeteoGroup
Brüssel, Belgique (6451): Température de l'air & dewpoint: 16.11.2019 04:00:00 - 22.11.2019 04:00:00 (CET)Brüssel, Belgique (6451): Vitesse du vent & gusts: 16.11.2019 04:00:00 - 22.11.2019 04:00:00 (CET)Brüssel, Belgique (6451): Direction du vent: 16.11.2019 04:00:00 - 22.11.2019 04:00:00 (CET)Brüssel, Belgique (6451): reduced air pressure: 16.11.2019 04:00:00 - 22.11.2019 04:00:00 (CET)Brüssel, Belgique (6451): visibility: 16.11.2019 04:00:00 - 22.11.2019 04:00:00 (CET)
Date & Time tt [°C] td [°C] ff [km/h] ff [knt] fx [km/h] fx [knt] dd ppp [hPa] vv [km]
22.11.2019 04:00:00 6,2 4,1 18 10 - - SSE 1003,6 10
22.11.2019 03:00:00 5,9 3,7 15 8 25 14 SSE 1003,7 10
22.11.2019 02:00:00 5,9 3,4 15 8 22 12 SSE 1003,7 10
22.11.2019 01:00:00 5,3 3,2 15 8 - - S 1003,9 10
22.11.2019 00:00:00 4,8 2,9 15 8 22 12 SSE 1004,2 10
21.11.2019 23:00:00 4,6 2,8 16 9 29 16 SSE 1004,2 10
21.11.2019 22:00:00 4,4 2,5 18 10 - - SSE 1004,6 10
21.11.2019 21:00:00 4,1 2,5 18 10 25 14 SSE 1004,8 8
21.11.2019 20:00:00 3,3 1,9 9 5 18 10 SE 1005,0 9
21.11.2019 19:00:00 3,0 1,7 13 7 - - SE 1005,3 10
21.11.2019 18:00:00 1,8 0,7 4 2 11 6 E 1005,6 7
21.11.2019 17:00:00 3,1 1,7 8 4 11 6 E 1005,8 8
21.11.2019 16:00:00 3,9 2,0 8 4 - - ESE 1006,0 10
21.11.2019 15:00:00 3,7 1,6 5 3 18 10 E 1006,1 10
21.11.2019 14:00:00 3,1 1,0 11 6 18 10 ESE 1006,4 10
21.11.2019 13:00:00 2,2 0,6 9 5 - - E 1007,3 10
21.11.2019 12:00:00 1,6 0,4 5 3 11 6 ESE 1008,1 10
21.11.2019 11:00:00 0,3 -0,8 9 5 14 8 ESE 1008,9 10
21.11.2019 10:00:00 -1,0 -1,9 4 2 - - E 1009,1 7
21.11.2019 09:00:00 -1,7 -2,4 5 3 14 8 ENE 1009,2 4,5
21.11.2019 08:00:00 -1,8 -2,6 5 3 11 6 E 1009,2 7
21.11.2019 07:00:00 -1,9 -2,7 8 4 - - E 1009,4 6
21.11.2019 06:00:00 -0,5 -1,9 9 5 18 10 ESE 1009,7 7
21.11.2019 05:00:00 -1,0 -2,1 13 7 14 8 SE 1010,0 8
21.11.2019 04:00:00 -0,8 -2,1 9 5 - - SE 1010,5 7
21.11.2019 03:00:00 -1,0 -2,0 8 4 14 8 E 1010,9 6
21.11.2019 02:00:00 -0,6 -1,6 11 6 14 8 E 1011,2 6
21.11.2019 01:00:00 -0,3 -1,5 9 5 - - E 1011,7 10
21.11.2019 00:00:00 -0,1 -1,4 8 4 11 6 E 1012,2 10
20.11.2019 23:00:00 0,0 -0,9 4 2 18 10 E 1012,7 10
20.11.2019 22:00:00 0,9 -0,8 11 6 - - ESE 1013,2 10
20.11.2019 21:00:00 1,1 -0,8 8 4 14 8 E 1013,5 10
20.11.2019 20:00:00 1,8 -0,5 9 5 18 10 ESE 1013,9 10
20.11.2019 19:00:00 2,6 0,4 8 4 - - ESE 1014,2 10
20.11.2019 18:00:00 4,1 0,8 11 6 14 8 SE 1014,4 10
20.11.2019 17:00:00 3,5 1,1 8 4 18 10 SE 1014,6 10
20.11.2019 16:00:00 5,1 0,4 11 6 - - ESE 1014,9 10
20.11.2019 15:00:00 5,6 1,2 11 6 18 10 E 1015,5 20
20.11.2019 14:00:00 5,9 0,4 9 5 14 8 E 1016,3 10
20.11.2019 13:00:00 4,9 0,6 9 5 - - ESE 1017,0 10
20.11.2019 12:00:00 3,9 0,9 8 4 18 10 SE 1017,6 10
20.11.2019 11:00:00 2,3 -0,4 13 7 22 12 ESE 1018,1 10
20.11.2019 10:00:00 0,9 -1,1 9 5 - - ESE 1018,2 10
20.11.2019 09:00:00 -0,5 -1,7 8 4 14 8 ESE 1018,3 10
20.11.2019 08:00:00 -0,8 -1,9 8 4 7 4 SE 1018,5 10
20.11.2019 07:00:00 -1,2 -2,0 5 3 - - SE 1018,5 10
20.11.2019 06:00:00 -0,9 -2,3 9 5 11 6 S 1018,5 10
20.11.2019 05:00:00 -0,7 -2,1 7 4 11 6 S 1018,8 20
20.11.2019 04:00:00 -1,3 -2,1 0 0 - - N 1019,0 20
20.11.2019 03:00:00 -0,1 -1,7 9 5 11 6 S 1019,3 10
20.11.2019 02:00:00 0,3 -1,8 9 5 11 6 S 1019,5 10
20.11.2019 01:00:00 0,3 -1,4 9 5 - - S 1019,7 10
20.11.2019 00:00:00 0,4 -1,6 8 4 11 6 S 1019,8 10
19.11.2019 23:00:00 0,5 -1,3 8 4 7 4 S 1019,8 10
19.11.2019 22:00:00 0,9 -1,0 8 4 - - S 1019,7 10
19.11.2019 21:00:00 1,1 -0,9 8 4 11 6 S 1019,5 10
19.11.2019 20:00:00 1,1 -0,9 9 5 11 6 S 1019,3 10
19.11.2019 19:00:00 2,0 -0,6 9 5 - - SSW 1019,1 10
19.11.2019 18:00:00 3,1 0,2 8 4 7 4 S 1019,0 10
19.11.2019 17:00:00 5,1 0,8 4 2 11 6 W 1018,7 10
19.11.2019 16:00:00 5,9 1,0 9 5 - - W 1018,4 10
19.11.2019 15:00:00 6,4 2,0 13 7 22 12 W 1018,2 10
19.11.2019 14:00:00 7,3 1,8 13 7 22 12 W 1018,2 10
19.11.2019 13:00:00 7,0 2,7 13 7 - - WSW 1018,3 10
19.11.2019 12:00:00 6,0 2,6 13 7 22 12 WSW 1018,3 10
19.11.2019 11:00:00 5,4 2,8 13 7 22 12 SW 1018,1 10
19.11.2019 10:00:00 4,7 2,4 11 6 - - WSW 1017,5 10
19.11.2019 09:00:00 3,9 2,3 13 7 22 12 SW 1016,8 10
19.11.2019 08:00:00 2,6 1,5 11 6 18 10 SW 1016,7 10
19.11.2019 07:00:00 3,3 2,0 14 8 - - WSW 1016,2 50
19.11.2019 06:00:00 3,4 2,0 13 7 22 12 WSW 1015,8 10
19.11.2019 05:00:00 3,8 2,2 15 8 22 12 WSW 1015,5 10
19.11.2019 04:00:00 4,7 2,3 15 8 - - WSW 1015,2 10
19.11.2019 03:00:00 4,5 2,2 14 8 25 14 W 1015,1 50
19.11.2019 02:00:00 5,2 2,3 16 9 22 12 W 1014,7 10
19.11.2019 01:00:00 5,3 2,8 13 7 - - W 1014,3 10
19.11.2019 00:00:00 5,9 3,5 15 8 22 12 W 1013,9 10
18.11.2019 23:00:00 6,6 4,5 13 7 29 16 WNW 1013,4 10
18.11.2019 22:00:00 6,7 4,4 21 11 - - NW 1012,8 10
18.11.2019 21:00:00 7,0 5,4 13 7 36 19 WNW 1011,9 10
18.11.2019 20:00:00 7,3 6,1 22 12 40 21 NW 1011,1 10
18.11.2019 19:00:00 7,3 6,0 26 14 - - NW 1010,4 6
18.11.2019 18:00:00 7,4 6,4 18 10 32 18 NW 1010,2 8
18.11.2019 17:00:00 6,5 5,8 15 8 22 12 WNW 1009,8 2,5
18.11.2019 16:00:00 5,7 5,1 9 5 - - SW 1009,6 2,5
18.11.2019 15:00:00 5,2 4,4 8 4 14 8 SSW 1009,5 3,5
18.11.2019 14:00:00 5,0 3,8 11 6 18 10 W 1009,7 4,5
18.11.2019 13:00:00 5,1 3,2 13 7 - - W 1009,6 9
18.11.2019 12:00:00 4,9 2,8 15 8 25 14 W 1009,8 7
18.11.2019 11:00:00 4,9 2,7 15 8 22 12 WNW 1009,9 10
18.11.2019 10:00:00 4,5 2,7 15 8 - - WNW 1009,8 9
18.11.2019 09:00:00 4,2 2,2 13 7 18 10 WNW 1010,0 8
18.11.2019 08:00:00 4,1 2,5 11 6 18 10 WNW 1009,8 8
18.11.2019 07:00:00 3,9 2,3 15 8 - - WNW 1009,1 10
18.11.2019 06:00:00 3,8 2,3 9 5 14 8 NW 1009,0 10
18.11.2019 05:00:00 3,8 2,3 11 6 14 8 NW 1009,1 10
18.11.2019 04:00:00 3,7 2,4 8 4 - - NW 1009,6 10
18.11.2019 03:00:00 4,0 2,2 8 4 11 6 NNW 1009,6 10
18.11.2019 02:00:00 3,8 2,0 5 3 11 6 NNW 1009,7 10
18.11.2019 01:00:00 3,8 2,0 8 4 - - NNW 1009,8 10
18.11.2019 00:00:00 3,9 2,3 5 3 11 6 N 1009,7 10
17.11.2019 23:00:00 4,2 2,5 9 5 14 8 NNW 1009,9 10
17.11.2019 22:00:00 4,4 2,9 9 5 - - NNW 1010,2 10
17.11.2019 21:00:00 4,2 2,6 8 4 14 8 NNW 1010,0 10
17.11.2019 20:00:00 4,7 2,9 8 4 18 10 N 1010,6 10
17.11.2019 19:00:00 4,9 2,9 11 6 - - N 1010,4 12
17.11.2019 18:00:00 5,0 3,0 8 4 18 10 N 1010,8 10
17.11.2019 17:00:00 5,9 2,9 8 4 14 8 N 1010,5 10
17.11.2019 16:00:00 6,0 3,3 8 4 - - NNE 1011,0 10
17.11.2019 15:00:00 6,8 3,1 9 5 14 8 NNE 1011,1 10
17.11.2019 14:00:00 7,0 2,8 8 4 11 6 N 1011,2 10
17.11.2019 13:00:00 6,1 2,8 8 4 - - NE 1011,3 10
17.11.2019 12:00:00 5,3 3,0 4 2 7 4 - 1011,6 10
17.11.2019 11:00:00 3,0 1,3 5 3 7 4 NNE 1011,8 10
17.11.2019 10:00:00 1,6 0,7 2 1 - - - 1011,9 10
17.11.2019 09:00:00 0,3 -0,4 2 1 11 6 SE 1012,1 10
17.11.2019 08:00:00 0,1 -0,7 8 4 7 4 SE 1012,1 7
17.11.2019 07:00:00 -0,2 -0,8 4 2 - - SSE 1011,6 10
17.11.2019 06:00:00 0,7 0,0 2 1 7 4 - 1011,1 10
17.11.2019 05:00:00 2,0 0,8 8 4 11 6 S 1011,0 10
17.11.2019 04:00:00 2,3 1,3 8 4 - - SSE 1011,4 10
17.11.2019 03:00:00 3,4 1,9 8 4 11 6 SSE 1011,6 10
17.11.2019 02:00:00 3,9 2,5 8 4 14 8 S 1011,2 10
17.11.2019 01:00:00 5,2 2,7 9 5 - - SSE 1011,4 10
17.11.2019 00:00:00 5,3 2,9 9 5 11 6 SSE 1011,1 10
16.11.2019 23:00:00 5,1 3,0 5 3 7 4 SSE 1011,2 10
16.11.2019 22:00:00 4,9 3,4 4 2 - - SSE 1011,1 10
16.11.2019 21:00:00 5,5 2,9 2 1 7 4 S 1010,9 10
16.11.2019 20:00:00 5,3 3,2 4 2 7 4 SW 1010,8 10
16.11.2019 19:00:00 5,3 3,3 5 3 - - S 1010,1 10
16.11.2019 18:00:00 5,8 2,1 8 4 11 6 S 1009,4 10
16.11.2019 17:00:00 5,5 1,8 5 3 11 6 SSE 1009,0 10
16.11.2019 16:00:00 5,9 2,7 8 4 - - SSE 1008,3 10
16.11.2019 15:00:00 5,8 2,6 9 5 25 14 S 1008,3 10
16.11.2019 14:00:00 6,3 2,5 13 7 22 12 S 1008,5 10
16.11.2019 13:00:00 5,9 2,3 15 8 - - S 1008,2 10
16.11.2019 12:00:00 5,2 2,2 13 7 18 10 SSE 1008,5 10
16.11.2019 11:00:00 4,2 1,5 13 7 18 10 S 1008,3 10
16.11.2019 10:00:00 3,1 1,0 5 3 - - S 1008,0 10
16.11.2019 09:00:00 1,2 -0,4 11 6 14 8 SSW 1007,5 10
16.11.2019 08:00:00 1,4 -0,3 8 4 11 6 S 1006,7 10
16.11.2019 07:00:00 1,4 -0,2 9 5 - - S 1006,1 10
16.11.2019 06:00:00 1,5 0,0 11 6 14 8 SSE 1005,5 10
16.11.2019 05:00:00 1,8 0,1 9 5 18 10 SSE 1005,4 10
16.11.2019 04:00:00 2,0 0,1 9 5 - - SSE 1005,4 10

tt = Température de l'air
td = dewpoint
ff = Vitesse du vent
fx = gusts
dd = Direction du vent
ppp = reduced air pressure
vv = visibility

stations d'obs. à proximité